Miscellaneous Local Product
Issued by NWS Hastings, NE

Home | Current Version | Previous Version | Graphics & Text | Print | Product List | Glossary On
Versions: 1 2 3 4 5 6 7 8 9 10 11 12 13 14 15 16 17 18 19 20 21 22 23 24 25 26 27 28 29 30 31 32 33 34 35 36 37 38 39 40 41 42 43 44 45 46 47 48 49 50
000
AXUS43 KGID 180202
MISGRI

GID CWA HOURLY WEATHER ROUNDUP
NATIONAL WEATHER SERVICE HASTINGS NE
900 PM CDT THU APR 17 2014

NOTE: "FAIR" INDICATES FEW OR NO CLOUDS BELOW 12,000 FEET WITH NO
SIGNIFICANT WEATHER AND/OR OBSTRUCTIONS TO VISIBILITY.

...SOUTH CENTRAL NEBRASKA...

CITY           SKY/WX    TMP DP  RH WIND       PRES   REMARKS
GRAND ISLAND   CLEAR     47  28  47 SE6       30.21S
HASTINGS       CLEAR     49  27  42 SE7       30.20S
KEARNEY        CLEAR     46  27  46 S9        30.20R
ORD            CLEAR     46  27  47 SE7       30.17S
YORK           CLEAR     45  25  45 SE7       30.23R
AURORA         CLEAR     47  25  41 SE6       30.21R
LEXINGTON      CLEAR     47  34  60 SE9       30.16S
HOLDREGE       CLEAR     44  31  60 SE8       30.18F
HEBRON         CLEAR     42  27  54 SE5       30.24R

...NEBRASKA PANHANDLE...

CITY           SKY/WX    TMP DP  RH WIND       PRES   REMARKS
CHADRON        PTCLDY    50  37  61 SE15      29.96F
ALLIANCE       PTCLDY    48  36  63 SE14      29.99S
SCOTTSBLUFF    CLEAR     54  37  52 SE15      29.96S
SIDNEY         CLEAR     51  32  48 SE12      29.99S

...WESTERN AND NORTH CENTRAL NEBRASKA...

CITY           SKY/WX    TMP DP  RH WIND       PRES   REMARKS
VALENTINE      CLOUDY    49  26  41 SE12      30.08F
AINSWORTH      PTCLDY    44  27  50 SE8       30.11S
ONEILL         CLEAR     45  21  38 SE8       30.17F
BROKEN BOW     CLEAR     44  29  55 SE9       30.14F
IMPERIAL       PTCLDY    49  36  61 S20G35    30.09R
NORTH PLATTE   PTCLDY    47  31  53 SE10      30.11S
MCCOOK         PTCLDY    50  33  52 SE9       30.14S

...EASTERN NEBRASKA...

CITY           SKY/WX    TMP DP  RH WIND       PRES   REMARKS
NORFOLK        MOCLDY    45  23  42 SE5       30.22R
SO SIOUX CITY  MOCLDY    48  24  39 E5        30.25S
TEKAMAH        PTCLDY    44  20  38 CALM      30.25R
COLUMBUS       PTCLDY    45  21  39 E3        30.23S
ALBION         MOCLDY    44  24  44 E3        30.21R
OMAHA EPPLEY   PTCLDY    49  26  41 E5        30.25R
OFFUTT AFB     CLEAR     40  27  61 CALM      30.25R
MILLARD        CLEAR     48  25  40 CALM      30.24S
LINCOLN        CLEAR     50  24  36 E7        30.26R
NEBRASKA CITY  CLEAR     49  28  43 CALM      30.26R
BEATRICE       CLEAR     48  26  43 E5        30.24S
FALLS CITY     CLEAR     49  28  44 SE5       30.26R

...NORTHERN KANSAS...

CITY           SKY/WX    TMP DP  RH WIND       PRES   REMARKS
GOODLAND       CLEAR     46  37  71 S16       30.13S
HILL CITY      CLEAR     50  30  46 S7        30.19R
PHILLIPSBURG   CLEAR     46  28  49 E7        30.20S
SMITH CENTER   CLEAR     41  28  60 SE8       30.22R
BELOIT         CLEAR     46  27  46 CALM      30.22S
HAYS           PTCLDY    46  27  46 SE10      30.21S
RUSSELL        CLEAR     47  29  49 E9        30.21R
CONCORDIA      CLEAR     43  27  53 SE6       30.23R
SALINA         CLEAR     49  29  46 SE5       30.25R
TOPEKA         CLEAR     47  34  60 S3        30.28R



USA.gov is the U.S. government's official web portal to all federal, state and local government web resources and services.